Regional Weather Roundup
Issued by NWS Upton, NY

Current Version | Previous Version | Graphics & Text | Print | Product List | Glossary Off
Versions: 1 2 3 4 5 6 7 8 9 10 11 12 13 14 15 16 17 18 19 20 21 22 23 24 25 26 27 28 29 30 31 32 33 34 35 36 37 38 39 40 41 42 43 44 45 46 47 48 49 50

000
ASUS41 KOKX 280808
RWROKX

REGIONAL WEATHER ROUNDUP
NATIONAL WEATHER SERVICE NEW YORK NY
400 AM EDT THU MAY 28 2015

NOTE: "FAIR" INDICATES FEW OR NO CLOUDS BELOW 12,000 FEET WITH NO
SIGNIFICANT WEATHER AND/OR OBSTRUCTIONS TO VISIBILITY.

NYZ071-072-176-178-NJZ106-104-280900-
NEW YORK CITY METRO AREA


CITY           SKY/WX    TMP DP  RH WIND       PRES   REMARKS
CENTRAL PARK   PTCLDY    70  66  87 VRB6      30.15S
LAGUARDIA APRT MOCLDY    69  62  78 S7        30.12S
KENNEDY INTL   PTCLDY    60  56  86 S6        30.15R
NEWARK/LIBERTY CLOUDY    70  67  90 SW6       30.12S
BRNX BOT. GARD   N/A     64  63  94 E1        30.13F
TETERBORO      MOCLDY    70  66  88 CALM      30.11S
$$

NYZ177-179-078>081-280900-
LONG ISLAND NEW YORK

CITY           SKY/WX    TMP DP  RH WIND       PRES   REMARKS
FARMINGDALE    PTCLDY    63  59  87 SW12      30.15S
ISLIP          PTCLDY    63  59  87 SW9       30.14S
SHIRLEY        MOCLDY    64  60  87 S12G21    30.16S
WESTHAMPTON    MOCLDY    61  59  93 SW8       30.18R
MONTAUK POINT    N/A     62  58  86 SW8       30.18S
$$

NYZ052-065-067-280900-
HUDSON VALLEY

CITY           SKY/WX    TMP DP  RH WIND       PRES   REMARKS
WHITE PLAINS   MOCLDY    62  61  96 CALM      30.13S FOG
NEWBURGH       MOCLDY    66  66 100 CALM      30.13S
MONTGOMERY     CLOUDY    68  67  96 S5        30.11F FOG
POUGHKEEPSIE   CLOUDY    67  64  90 CALM      30.11S
ALBANY         CLOUDY    68  65  90 S3        30.07S
$$

NJZ001-105-106-008-010-013-015-019>022-104-280900-
NEW JERSEY

CITY           SKY/WX    TMP DP  RH WIND       PRES   REMARKS
NEWARK/LIBERTY CLOUDY    70  67  90 SW6       30.12S
TETERBORO      MOCLDY    70  66  88 CALM      30.11S
CALDWELL       CLOUDY    70  67  90 CALM      30.13S
MORRISTOWN     CLOUDY    72  68  88 CALM      30.13S FOG
SOMERVILLE     CLOUDY    67  65  93 CALM      30.11S FOG
SUSSEX         CLOUDY    68  66  93 CALM      30.14S FOG
ANDOVER          N/A     66  66 100 CALM      30.13F
TRENTON        PTCLDY    67  65  93 SW3       30.12F FOG
MILLVILLE      PTCLDY    69  66  90 CALM      30.14S
ATLANTIC CITY  PTCLDY    66  62  87 S5        30.14F
WRIGHTSTOWN    PTCLDY    65  65  99 S5        30.11S
TOMS RIVER     PTCLDY   N/A N/A N/A CALM      30.14S
BELMAR         CLEAR     66  61  82 SW5       30.14S
$$

PAZ047>061-062-071-280900-
EASTERN PENNSYLVANIA

CITY           SKY/WX    TMP DP  RH WIND       PRES   REMARKS
PHILADELPHIA   PTCLDY    71  67  87 S8        30.13S
ALLENTOWN      FOG       64  63  94 CALM      30.13S VSB 1/2
SCRANTON       CLEAR     64  61  90 CALM      30.12S FOG
$$

CTZ002-004>006-009-010-012-RIZ004-006-007-MAZ004-011-015-280900-
SOUTHERN NEW ENGLAND
 IN CT

CITY           SKY/WX    TMP DP  RH WIND       PRES   REMARKS
BRADLEY INTL   MOCLDY    66  63  90 S9        30.11F
HARTFORD       CLOUDY    66  62  87 S7        30.13S
DANBURY        CLOUDY    67  64  90 SW3       30.14F FOG
WTRBRY/OXFORD  CLOUDY    64  61  88 CALM      30.16S
BRIDGEPORT     PTCLDY    63  60  90 CALM      30.14S
MERIDEN        CLOUDY    63  60  90 CALM      30.14S
NEW HAVEN      MOCLDY    61  58  90 S5        30.14S
CHESTER        FAIR      63  61  94 SW5       30.16R
GROTON         MOCLDY    59  57  93 S6        30.16R
WILLIMANTIC    CLOUDY    66  62  87 S6        30.15S

 IN RI

CITY           SKY/WX    TMP DP  RH WIND       PRES   REMARKS
PROVIDENCE     CLOUDY    64  59  83 SW8       30.15S
BLOCK ISLAND   MOCLDY    59  55  88 SW14      30.18R
WESTERLY       PTCLDY    59  56  89 S9        30.16F

 IN MA

CITY           SKY/WX    TMP DP  RH WIND       PRES   REMARKS
BOSTON         MOCLDY    64  60  87 SW13      30.11S
WORCESTER      CLOUDY    65  62  90 SW13      30.13F
WESTFIELD      CLOUDY    65  63  93 S8        30.11S FOG
PROVINCETOWN   PTCLDY    61  55  82 SW17      30.14S
NANTUCKET      PTCLDY    61  57  87 S13       30.20S
$$

ANZ330-335-338-340-345-350-353-355-280900-
COASTAL MARINE OBSERVATIONS


STATION/POSITION TIME  SKY/WX   TEMP    WIND        PRES    VSBY  WAVE
                                AIR SEA DIR/SP/G                  HT/PER
                 (UTC)          (F)     (DEG/KT/KT) (MB)    (MI)  (FT/S)
NY HARB ENTRANCE 0750            58 50  200/ 14/ 16 1020.1          4/ 6
4S FIRE IS       0703               56                N/A           5/ 6
20S FIRE ISLAND  0750            60 57  190/ 14/ 16 1021.0          4/ 6
GREAT SOUTH BAY  0700            63 67  260/ 12/ 16   N/A
23SW MTP         0750            60 54  210/ 16/ 19 1021.0          4/ 6
HUDSON CANYON    NOT AVBL
KINGS POINT      0700            65 61  160/  5/  8 1019.6
CENTRAL LI SOUND 0715            59 56   CALM  /  2   N/A
EASTERN LI SOUND 0700            60     260/  8/ 16   N/A
ROBBINS REEF     0700            70     170/  4/  5 1019.1
$$


>>>>>>>>>>>>>>>>>>>>>>>>>>>> KEY <<<<<<<<<<<<<<<<<<<<<<<<<<<
>                                                          <
>     SKY/WX - SKY CONDITION/PRESENT WEATHER               <
>     TMP    - TEMPERATURE IN FAHRENHEIT                   <
>     DP     - DEWPOINT IN FAHRENHEIT                      <
>     RH     - RELATIVE HUMIDITY IN PERCENT                <
>     WIND   - DIRECTION AND SPEED IN MPH                  <
>     PRES   - MEAN SEA LEVEL PRESSURE IN INCHES OF HG     <
>     WCI    - WIND CHILL INDEX                            <
>     VSB    - VISIBILITY IN MILES                         <
>     HX     - HEAT INDEX                                  <
>     TC     - TEMPERATURE IN CELSIUS                      <
>     VRB    - VARIABLE WIND DIRECTION                     <
>                                                          <
>>>>>>>>>>>>>>>>>>>>>>>>>>>> KEY <<<<<<<<<<<<<<<<<<<<<<<<<<<




USA.gov is the U.S. government's official web portal to all federal, state and local government web resources and services.